Location: Unspecified
(42.3650°N, 71.1030°W)
Time: 00:37:36
(UTC+00:00)

Daily predictions for brighter satellites

Satellite Brightness Start Highest point End
(mag) Time Altitude Azimuth Time Altitude Azimuth Time Altitude Azimuth
Cosmos 1500 Rocket 3.5 00:55:03 10° N 00:59:21 90° NW 01:03:37 10° S
Cosmos 2082 Rocket 3.7 00:56:17 10° N 01:00:45 23° NE 01:05:11 10° ESE
ARIANE 6 FM1 Upper Stage 4.3 00:59:16 10° SSE 01:01:49 16° ESE 01:04:21 10° ENE
Cosmos 2278 Rocket 2.5 00:57:11 10° S 01:02:33 46° ESE 01:07:56 10° NE
Iridium 4 Rocket 4.1 01:01:06 10° SSE 01:05:31 34° E 01:09:38 10° NNE
Meteor 1-31 Rocket 3.2 01:03:23 10° S 01:06:44 53° W 01:10:07 10° NNW
Milstar 3 Cent rocket 4.1 01:05:28 10° SW 01:07:20 12° SSW 01:09:04 10° S
Okean-O 3.3 01:03:40 10° SE 01:07:42 39° ENE 01:11:47 10° N
USA 276 4.1 01:06:19 10° WNW 01:07:47 17° NNW 01:09:24 10° NNE
SL-8 R/B 4.0 01:06:44 10° WSW 01:11:26 73° NNW 01:16:10 10° ENE
Timation 1 Rocket 4.4 01:05:33 10° NNW 01:11:34 87° ENE 01:17:30 10° SSE
CZ-4 R/B 2.5 01:09:44 10° S 01:13:21 41° W 01:17:02 10° NNW
Cosmos 1328 Rocket 3.9 01:11:56 10° SSE 01:16:02 43° E 01:20:07 10° NNE
BREEZE-M R/B 4.4 01:10:49 10° WNW 01:18:11 70° SW 01:23:44 11° SE
Cosmos 1680 Rocket 3.5 01:14:32 10° S 01:19:38 65° ESE 01:24:48 10° NNE
Meteor 1-13 Rocket 4.4 01:15:41 10° S 01:21:34 71° E 01:27:28 10° NNE
SPOT 3 Rocket 4.5 01:18:12 11° SE 01:22:38 33° ENE 01:27:13 10° N
NOSS 2-1 (E) 3.2 01:20:48 10° SW 01:25:06 84° WNW 01:28:27 10° NE
Cosmos 1745 Rocket 4.1 01:19:55 10° N 01:26:12 64° E 01:32:29 10° SSE
ERS-1 Rocket 3.9 01:22:31 10° S 01:27:18 48° W 01:32:09 10° NNW
Timation 2 Rocket 4.3 01:21:39 10° S 01:27:37 48° ESE 01:33:54 10° NE
Helios 1A Rocket 2.2 01:25:16 10° NNE 01:28:23 85° WNW 01:31:31 10° SSW
Okean O Rocket 1.7 01:25:20 10° SSE 01:29:34 67° ENE 01:33:56 10° N
USA 59 Rocket 1.0 01:27:04 10° WSW 01:30:41 39° NW 01:33:40 10° NNE
SL-12 R/B (Aux Motor) 3.9 01:29:28 10° WNW 01:31:35 65° SSW 01:34:14 15° ESE
Cosmos 2056 Rocket 3.7 01:27:21 10° NNW 01:32:23 57° ENE 01:36:36 14° SE
SL-08 R/B 3.3 01:30:11 10° NNE 01:34:46 81° WNW 01:39:22 10° SSW
BREEZE-M R/B 4.2 01:33:39 10° W 01:37:02 47° NNW 01:43:12 10° ENE
Terra 2.9 01:32:45 10° SSW 01:37:11 41° W 01:41:39 10° NNW
Cosmos 2369 Rocket 4.1 01:36:04 10° ESE 01:37:13 11° E 01:38:25 10° E
Cosmos 1420 Rocket 4.2 01:32:35 10° NNW 01:37:44 67° WSW 01:42:47 10° S
Ariane Rocket 3.8 01:37:09 14° SE 01:40:54 36° ENE 01:45:29 10° N
NOSS 3-1 (C) 4.1 01:40:04 16° SE 01:41:57 20° ESE 01:45:34 10° ENE
Spot 2 Rocket 3.6 01:37:27 10° S 01:42:31 77° WSW 01:47:37 10° NNW
GP-B 3.1 01:39:21 10° N 01:43:42 67° E 01:47:35 13° S
Meteor 1-21 4.2 01:38:43 10° S 01:44:17 69° E 01:49:57 10° NNE
SL-4 R/B 2.0 01:43:29 10° WSW 01:46:53 62° NNW 01:50:09 10° NE
Cosmos 1666 Rocket 3.4 01:42:35 10° N 01:46:54 87° E 01:50:30 14° S
COSMOS 2406 4.4 01:53:41 10° N 01:58:40 30° NE 02:02:32 15° ESE
SWARM A 4.1 01:56:51 10° N 02:00:05 89° ENE 02:02:01 22° S
Cosmos 1515 Rocket 3.6 02:01:28 20° SSE 02:04:21 58° E 02:08:35 10° NNE
USA 186 1.9 02:09:28 29° WSW 02:09:48 31° W 02:11:34 10° NNW
Cosmos 1633 Rocket 3.5 02:07:09 10° NNW 02:11:28 61° W 02:14:45 17° S
Cosmos 2344 4.4 02:04:34 10° WSW 02:12:14 51° NW 02:19:14 10° NNE
Cosmos 1110 Rocket 4.3 02:07:25 10° N 02:12:29 54° ENE 02:15:20 25° SE
Cosmos 1400 Rocket 2.9 02:09:42 10° N 02:13:13 49° ENE 02:14:30 32° SE
ATLAS 5 CENTAUR R/B 0.3 02:14:56 15° SSW 02:17:11 84° ESE 02:20:09 10° NE
COSMOS 2455 4.2 02:20:06 19° ESE 02:20:49 19° ESE 02:24:56 10° ENE
Cosmos 967 Rocket 4.5 02:21:41 10° SSW 02:28:05 69° ESE 02:34:31 10° NE
Cosmos 2315 Rocket 4.5 02:22:26 10° SSW 02:28:33 60° W 02:34:40 10° N
Lacrosse 4 Rocket 3.7 02:26:33 10° N 02:29:07 16° NE 02:31:33 10° E
Cosmos 1452 Rocket 4.0 02:24:34 10° N 02:29:41 49° ENE 02:32:11 28° SE
Cosmos 1331 Rocket 4.0 02:26:12 10° NNW 02:31:23 74° ENE 02:33:53 31° SSE
Cosmos 1818 4.3 02:31:14 29° SE 02:32:34 33° ESE 02:37:24 10° NE
Cosmos 1441 Rocket 2.6 02:32:34 46° S 02:33:24 89° SE 02:36:38 10° N
Cosmos 1943 Rocket 4.3 02:29:03 10° WSW 02:33:47 27° NW 02:38:30 10° N
ARIANE 6 FM1 Upper Stage 3.3 02:36:13 10° SW 02:40:23 57° NW 02:44:28 10° NNE
USA 245 3.9 02:41:33 24° WSW 02:41:51 25° W 02:43:56 10° NW
Cosmos 2082 Rocket 2.5 02:39:41 10° NNW 02:45:11 57° WSW 02:48:02 28° S
Cosmos 2278 Rocket 4.2 02:41:59 10° WSW 02:46:48 28° NW 02:51:38 10° N
CZ-4B R/B 4.0 02:50:59 24° SW 02:52:43 36° W 02:56:27 10° NNW
Cosmos 1656 Rocket 4.0 02:52:14 10° SW 02:57:40 65° WNW 03:03:14 10° NNE
Cosmos 2184 Rocket 4.0 02:53:45 10° N 03:00:06 79° E 03:03:03 34° SSE
Okean 3 4.2 02:59:41 25° SW 03:01:40 45° WNW 03:05:34 10° N
Cosmos 2154 Rocket 4.0 02:56:30 10° N 03:02:44 76° E 03:05:29 36° SSE
Cosmos 1933 Rocket 3.9 03:01:11 10° NNW 03:05:26 56° W 03:06:50 37° SSW
Okean O Rocket 4.2 03:04:43 10° WSW 03:06:11 11° W 03:07:38 10° WNW
IKONOS-2 4.4 03:02:30 10° NNE 03:06:33 58° E 03:06:56 55° SE
SL-12 R/B(2) 4.2 03:03:47 10° SW 03:11:32 87° NW 03:21:03 10° NE
CZ-3B R/B 3.7 03:14:18 35° SE 03:15:46 40° ESE 03:29:45 10° NE
CZ-2C R/B 3.5 03:16:23 31° WNW 03:16:23 31° WNW 03:18:22 10° NNW
Okean 1-7 3.0 03:18:05 55° ESE 03:18:22 56° E 03:22:31 10° NNE
Helios 1A 2.7 03:16:05 10° NNE 03:20:03 71° ESE 03:20:16 69° SE
Cosmos 2369 Rocket 2.1 03:17:47 35° SSW 03:20:15 85° ESE 03:25:53 10° NNE
CZ-2C R/B 4.4 03:15:57 10° NNE 03:20:22 39° E 03:20:38 38° ESE
Cosmos 1302 Rocket 3.9 03:15:31 10° NNW 03:20:50 85° ENE 03:22:19 49° SSE
SL-4 R/B 4.3 03:22:08 10° WNW 03:24:35 19° NNW 03:26:59 10° NE
Cosmos 1328 3.9 03:26:49 52° W 03:27:02 53° W 03:30:30 10° N
ARGOS Delta rocket 3.8 03:25:36 10° NNE 03:30:40 77° E 03:31:40 56° S
NOSS 3-1 (A) 2.7 03:30:31 59° SSE 03:31:02 64° ESE 03:36:17 10° NE
NOSS 3-1 (C) 3.8 03:27:33 10° WSW 03:31:59 47° NW 03:37:16 10° NNE
Helios 1B rocket 2.9 03:34:20 39° ENE 03:34:20 39° ENE 03:37:17 10° N
Cosmos 2297 3.7 03:32:16 36° SSW 03:34:44 87° WNW 03:40:29 10° NNE
Spot 4 4.4 03:38:18 41° ESE 03:39:17 47° ENE 03:43:55 10° N
COSMOS 2406 3.9 03:37:43 10° NW 03:43:03 42° WSW 03:44:33 35° SW
Meteor 2-5 Rocket 3.9 03:41:44 48° SSE 03:43:12 64° E 03:49:04 10° NNE
Cosmos 1992 Rocket 3.9 03:38:04 10° NNW 03:43:17 76° ENE 03:44:23 55° SE
Cosmos 1733 Rocket 2.9 03:40:16 10° N 03:44:34 77° W 03:44:55 71° SW
IRIDIUM 103 4.5 03:39:29 10° N 03:44:40 60° E 03:45:38 50° SE
Cosmos 1707 Rocket 3.5 03:49:08 64° SW 03:49:39 73° W 03:54:05 10° N
CZ-2C R/B 3.9 03:46:28 10° NNE 03:51:02 32° E 03:51:15 31° E
Cosmos 1703 Rocket 4.3 03:54:30 40° E 03:54:30 40° E 03:58:30 10° NNE
Cosmos 1869 4.2 03:52:08 10° N 03:54:47 34° NE 03:54:47 34° NE
Cosmos 2366 rocket 4.1 03:53:12 10° N 03:59:30 66° E 04:01:20 46° SE
Cosmos 1862 Rocket 4.1 04:01:31 43° WSW 04:02:09 47° WNW 04:06:19 10° N
ARIANE 5 R/B 2.5 04:01:59 73° ESE 04:02:15 77° ENE 04:06:39 10° N
Cosmos 2327 Rocket 4.4 03:56:14 10° N 04:02:20 83° W 04:04:02 50° S
IRIDIUM 106 4.2 03:57:44 10° N 04:02:59 87° E 04:03:54 62° S
COSMOS 2455 3.0 04:03:09 31° SW 04:06:06 69° WNW 04:12:07 10° NNE
Cosmos 972 4.4 04:01:37 10° NNW 04:07:12 82° WSW 04:08:01 63° S
Lacrosse 4 Rocket 1.6 04:03:08 10° NW 04:06:56 60° W 04:06:56 60° W
Cosmos 1821 Rocket 4.3 04:04:15 10° N 04:10:13 53° ENE 04:11:57 41° SE
Meteor 2-15 4.3 04:04:33 10° N 04:10:39 87° W 04:12:13 53° S
Cosmos 2181 Rocket 4.1 04:14:02 48° SSE 04:15:41 66° E 04:22:04 10° NNE
USA 290 4.4 04:13:30 10° NW 04:14:57 20° WNW 04:14:57 20° WNW
Cosmos 1315 Rocket 3.4 04:12:35 10° NNW 04:15:47 45° WNW 04:15:47 45° WNW
Meteor 2-13 Rocket 4.4 04:17:21 48° SSW 04:19:09 77° W 04:25:16 10° N
ALOS 2 2.5 04:20:31 79° WSW 04:20:34 79° WSW 04:24:58 10° NNW
Cosmos 2228 Rocket 3.6 04:21:36 46° W 04:22:03 48° WNW 04:26:20 10° N
CZ-2C R/B 3.2 04:23:23 38° ESE 04:24:43 47° ENE 04:29:49 10° N
SJ 16-02 2.8 04:26:46 25° E 04:26:46 25° E 04:29:37 10° NE
Cosmos 2218 Rocket 3.9 04:21:36 10° N 04:27:54 83° W 04:29:29 53° S
Cosmos 1908 Rocket 3.4 04:26:44 10° N 04:31:08 84° WNW 04:31:08 84° WNW
SL-8 R/B 4.4 04:32:28 10° WNW 04:37:06 52° NNE 04:41:44 10° E
Gbstr 26 Del rocket 3.9 04:37:11 54° SSE 04:37:54 57° SE 04:44:48 10° ENE
ACS3 Solar Sail 2.0 04:33:00 10° NNE 04:38:32 49° E 04:39:34 44° SE
Cosmos 921 Rocket 3.0 04:41:55 68° NE 04:41:55 68° NE 04:45:40 10° NNE
SL-8 Rocket 4.4 04:37:49 10° NNW 04:43:44 52° W 04:45:17 42° SW
Cosmos 304 Rocket 3.6 04:44:41 74° ESE 04:44:47 75° ESE 04:49:33 10° NNE
Lacrosse 5 rocket 3.2 04:45:14 10° NNW 04:48:02 22° NNE 04:49:33 17° ENE
Cosmos 381 Rocket 4.5 04:48:03 53° S 04:49:35 74° ESE 04:55:59 10° NNE
Cosmos 1782 Rocket 3.5 04:46:48 10° N 04:51:06 78° ENE 04:51:06 78° ENE
USA 229 DEB 4.2 04:54:58 33° ESE 04:55:27 34° ESE 05:01:07 10° NE
USA 229 4.2 04:55:01 33° ESE 04:55:30 33° ESE 05:01:08 10° NE
SL-4 R/B 4.4 05:00:30 10° NW 05:02:42 17° N 05:04:51 10° NE
USA 215 3.4 04:58:23 17° ESE 05:03:39 74° NE 05:10:10 10° NW
Cosmos 2297 Rocket 3.3 05:00:59 10° N 05:06:15 38° ENE 05:09:36 20° ESE
Cosmos 1300 Rocket 4.0 05:04:01 10° NNW 05:07:55 50° W 05:07:55 50° W
Cosmos 407 Rocket 3.3 05:10:38 69° SSW 05:11:17 86° WNW 05:16:27 10° NNE
Cosmos 371 Rocket 3.3 05:11:13 64° WSW 05:11:44 70° WNW 05:16:34 10° NNE
Cosmos 1980 Rocket 4.4 05:12:15 11° ESE 05:13:47 12° E 05:16:01 10° ENE
Cosmos 2239 Rocket 4.4 05:13:07 10° N 05:19:16 75° W 05:20:47 52° SSW
Cosmos 1378 Rocket 4.0 05:19:46 46° E 05:19:50 47° E 05:23:57 10° NNE
Cosmos 1934 Rocket 4.2 05:15:35 10° N 05:21:55 69° E 05:24:13 41° SSE
CZ-4C R/B 3.9 05:21:26 10° NNE 05:24:15 43° ENE 05:24:15 43° ENE
Cosmos 1763 Rocket 3.3 05:24:54 10° NNW 05:29:54 65° WSW 05:30:18 62° SW
CZ-2C R/B 4.2 05:26:16 10° N 05:30:44 31° WNW 05:32:13 26° W
Cosmos 1656 3.8 05:30:14 47° WSW 05:31:38 64° WNW 05:37:11 10° NNE
Cosmos 1954 Rocket 4.2 05:33:54 49° SE 05:34:42 54° ESE 05:39:43 10° NNE
USA 32 3.9 05:29:39 10° N 05:34:54 86° W 05:35:52 60° S
DELTA 2 DEB (DPAF) 4.3 05:33:55 10° NNE 05:36:51 45° ENE 05:36:51 45° ENE
Cosmos 1346 Rocket 3.5 05:38:07 40° NW 05:38:07 40° NW 05:41:10 10° N
Cosmos 1190 Rocket 4.0 05:37:10 57° SSE 05:38:04 70° ESE 05:43:15 10° NNE
Landsat 5 3.6 05:34:43 10° N 05:38:10 56° NW 05:38:10 56° NW
Meteor 1-11 4.1 05:41:56 53° SSW 05:43:21 85° W 05:49:09 10° N
Cosmos 2084 Rocket 4.1 05:44:28 40° WNW 05:45:00 43° NW 05:48:54 10° NNE
ATLAS 3B R/B 3.1 05:48:52 39° S 05:51:50 65° ESE 05:59:37 10° NE
Cosmos 1674 Rocket 3.5 05:52:20 65° SSE 05:52:51 74° E 05:57:15 10° NNE
Cosmos 1025 Rocket 2.9 05:58:15 66° SSE 05:58:46 77° E 06:03:08 10° N
CENTAUR R/B 3.4 05:50:24 10° NW 05:58:56 87° NE 06:08:33 10° SE
Meteor 2-1 Rocket 4.4 05:54:48 10° N 06:00:41 75° E 06:03:16 35° SSE
SJ 16-02 2.7 06:03:14 25° W 06:04:02 26° WNW 06:07:40 10° N
NOSS 2-2 (E) 3.5 06:00:41 10° NW 06:04:37 86° SW 06:06:13 43° SSE
CZ-2C R/B 4.0 06:04:50 22° W 06:05:10 22° W 06:09:15 10° NW
Cosmos 1697 Rocket 2.6 06:05:34 47° SSW 06:07:15 83° ESE 06:12:53 10° NNE
BREEZE-M DEB (TANK) 3.6 05:52:40 10° WNW 06:08:08 88° NNE 06:11:48 10° ESE
Cosmos 540 Rocket 4.3 06:04:04 10° NW 06:08:31 32° W 06:08:36 31° WSW
PSLV R/B 3.5 06:07:38 10° NNE 06:11:28 85° WNW 06:11:41 78° SW
Okean 2 Rocket 3.0 06:10:35 10° N 06:14:58 77° E 06:16:04 49° SSE
NOSS 2-2 (D) 4.0 06:11:26 10° NW 06:15:09 46° WSW 06:15:09 46° WSW
Geosat 4.0 06:10:47 10° NNE 06:15:47 78° WNW 06:17:20 45° SW
Centaur D AC-294.206:21:21SE06:21:21SE06:04:33WSW
Cosmos 1437 Rocket 4.4 06:15:28 10° NNE 06:18:18 24° ENE 06:19:50 18° ESE
SL-8 R/B 3.7 06:14:49 10° WNW 06:19:27 54° SW 06:19:28 54° SW
Cosmos 468 Rocket 4.2 06:14:44 10° NNW 06:19:38 48° WSW 06:20:26 44° SW
FENGYUN 3A 4.2 06:14:29 10° NNE 06:19:41 48° E 06:22:04 29° SSE
ACS3 Solar Sail 3.1 06:15:51 10° NNW 06:20:23 25° WNW 06:22:53 19° WSW
DELTA 2 R/B (1) 4.5 06:20:24 30° SSE 06:20:26 30° SSE 06:25:11 10° E
Cosmos 2227 Rocket 2.6 06:15:42 10° NNW 06:21:17 60° ENE 06:26:25 12° SE
Cosmos 1782 3.7 06:18:17 10° N 06:21:34 36° ENE 06:22:38 29° ESE
Cosmos 405 Rocket 4.0 06:22:26 21° NW 06:22:26 21° NW 06:24:12 10° NNW
Okean 1 Rocket 2.9 06:18:30 10° N 06:22:50 86° E 06:23:55 50° SSE
Resurs 1-4 Rocket 4.3 06:19:37 10° NE 06:22:54 17° E 06:26:12 10° SE
Cosmos 676 Rocket 4.0 06:22:59 44° SW 06:24:37 75° WNW 06:29:48 10° NNE
Lacrosse 5 rocket 2.8 06:21:24 10° WNW 06:22:35 19° WNW 06:22:35 19° WNW
Cosmos 2151 Rocket 3.7 06:22:26 10° NNW 06:26:49 56° W 06:27:33 49° SW
SL-24 R/B - RUBIN 2 4.4 06:23:10 10° NNW 06:27:44 57° NE 06:32:44 10° SE
Cosmos 968 Rocket 3.5 06:27:06 41° S 06:28:58 76° ESE 06:34:12 10° NNE
Cosmos 1862 4.3 06:28:16 28° ESE 06:29:10 33° E 06:32:24 10° NNE
Cosmos 1605 Rocket 4.0 06:23:26 10° NNW 06:29:34 64° W 06:32:08 35° SSW
Cosmos 2251 Rocket 4.3 06:27:49 30° WSW 06:29:49 41° WNW 06:34:53 10° N
Cosmos 1975 Rocket 4.3 06:31:38 22° SE 06:33:38 34° E 06:37:32 10° NNE
NPP 3.8 06:30:47 10° NNE 06:36:10 67° ESE 06:38:45 31° S
Spot 1 4.4 06:32:17 10° N 06:37:02 64° WNW 06:38:27 41° SW
MSX 3.8 06:31:39 10° NNE 06:37:26 89° W 06:40:08 34° SSW
Cosmos 2292 Rocket 3.1 06:37:15 59° S 06:37:54 87° E 06:42:08 10° N
GEOS 3 Rocket 4.2 06:37:29 35° SW 06:38:10 36° WSW 06:43:06 10° NW
SL-4 R/B 2.4 06:37:28 10° NW 06:40:31 45° NNE 06:43:30 10° ESE
USA 229 DEB 4.2 06:42:20 21° WSW 06:46:04 46° NW 06:52:29 10° NNE
USA 229 4.2 06:42:23 22° WSW 06:46:05 47° NW 06:52:32 10° NNE
USA 215 3.9 06:45:40 30° SSW 06:46:59 32° SW 06:52:43 10° WNW
Cosmos 841 Rocket 3.5 06:42:30 10° NNW 06:47:34 56° WSW 06:49:37 34° SSW
OPS 6432 4.1 06:44:15 10° NW 06:47:37 77° SW 06:48:08 59° S
H-2A R/B 3.8 06:45:40 10° NE 06:49:44 24° E 06:53:43 10° SSE
Cosmos 2297 Rocket 3.0 06:45:12 10° NW 06:50:09 32° WSW 06:51:20 29° SW
Cosmos 2221 Rocket 4.1 06:50:21 35° SW 06:51:42 47° WNW 06:56:05 10° N
Envisat 4.0 06:47:57 10° NNE 06:52:42 39° E 06:56:15 17° SSE
IDEFIX/ARIANE 42P 2.7 06:48:58 10° N 06:54:08 64° WNW 06:56:32 31° SW
Cosmos 1741 Rocket 4.1 06:52:30 30° S 06:55:09 73° ESE 07:00:27 10° NNE
Cosmos 1980 Rocket 2.2 06:54:00 31° SSW 06:56:53 89° WNW 07:02:37 10° NNE
ADEOS Rocket 3.0 06:51:43 10° N 06:57:29 61° WNW 07:00:20 28° SW
Cosmos 2219 4.5 06:52:13 10° NNW 06:57:35 41° ENE 07:02:56 10° SE
Cosmos 2058 3.1 06:56:32 30° SSE 06:58:14 61° E 07:02:07 10° NNE
Cosmos 1850 Rocket 3.9 06:55:43 31° SSW 06:58:15 83° ESE 07:03:27 10° NNE
Cosmos 2263 Rocket 2.2 06:54:37 10° NNW 07:00:15 80° ENE 07:05:53 10° SSE
MOZ.5/SAFIR/RUBIN 5/SL-8 4.5 06:56:19 10° SSE 07:00:46 53° ENE 07:05:19 10° N
ISS -3.8 07:03:48 49° SSW 07:04:31 69° SE 07:07:53 10° ENE
Cosmos 1455 Rocket 3.0 07:00:57 10° NNW 07:05:16 65° W 07:07:17 30° SSW
SL-24 DEB 4.1 07:05:21 30° SSW 07:07:25 67° W 07:11:52 10° N
Sich 1 Rocket 4.3 07:03:38 10° NNW 07:07:47 37° W 07:09:09 29° SW
USA 308 2.6 07:04:23 10° NW 07:08:31 67° SW 07:12:27 10° SE
NOSS 3-2 (A) 4.1 07:04:02 10° NW 07:11:36 84° WSW 07:20:36 10° SSE
ADEOS II 3.4 07:14:40 10° NNE 07:19:26 35° E 07:24:09 10° SSE
Cosmos 1459 Rocket 4.0 07:13:13 10° N 07:19:30 81° W 07:25:24 12° S
SL-19 R/B 3.5 07:20:41 29° S 07:22:09 72° WSW 07:25:11 10° NNW
Cosmos 2123 Rocket 4.0 07:17:49 18° S 07:22:39 87° W 07:28:59 10° N
Cosmos 158 Rocket 3.9 07:19:21 10° NNW 07:24:13 80° ENE 07:29:04 10° SSE
Cosmos 1933 4.2 07:22:43 10° N 07:26:24 46° ENE 07:30:02 10° SSE
CZ-2D R/B 2.7 07:21:40 10° NNE 07:26:59 56° E 07:31:53 12° S
Cosmos 1544 Rocket 4.3 07:22:46 10° N 07:27:07 54° E 07:31:26 10° SSE
Cosmos 2082 4.2 07:24:14 10° NNW 07:29:51 62° ENE 07:35:28 10° SE
NOAA 11 4.4 07:24:28 10° N 07:29:53 61° WNW 07:33:41 20° SSW
H-2A R/B 4.3 07:27:42 10° SE 07:31:07 30° ENE 07:34:34 10° N
Cosmos 2173 Rocket 4.1 07:27:52 10° NNW 07:33:58 58° W 07:39:15 14° SSW
SL-16 R/B 3.3 07:31:31 10° S 07:36:44 40° ESE 07:42:00 10° NE
ATLAS 3B R/B 4.0 07:36:05 10° WSW 07:43:08 37° NW 07:50:21 10° NNE
Cosmos 1536 Rocket 4.1 07:44:36 10° S 07:48:56 58° E 07:53:18 10° NNE
CENTAUR R/B 4.3 07:42:10 10° WNW 07:49:06 26° WSW 07:56:26 10° SSW
SL-08 R/B 4.4 07:42:56 10° N 07:49:06 88° WSW 07:55:10 10° S
Cosmos 2016 Rocket 4.0 07:43:18 10° N 07:49:34 76° W 07:55:53 10° S
Cosmos 1437 Rocket 4.1 07:50:31 10° NW 07:52:44 16° W 07:53:36 15° WSW
Cosmos 2369 3.9 07:49:01 16° SW 07:53:34 63° WNW 07:59:16 10° NNE
Cosmos 2228 4.1 07:50:39 10° NNW 07:54:13 26° W 07:56:41 16° SW
NOSS 2-3 (D) 4.4 07:51:16 10° NW 07:56:32 88° ENE 08:03:40 10° SE
ALOS 2.2 07:52:30 10° N 07:57:02 73° WNW 08:01:15 12° SSW
Cosmos 2061 Rocket 4.2 07:53:15 10° N 07:59:39 82° E 08:05:55 10° S
Cosmos 2333 Rocket 2.7 07:55:55 10° S 08:01:27 58° ESE 08:07:03 10° NNE
Cosmos 1814 Rocket 4.1 07:56:49 10° NNW 08:02:00 58° WSW 08:07:06 10° S
Resurs 1-4 Rocket 2.2 07:57:52 10° N 08:03:05 63° WNW 08:08:10 11° SSW
NOSS 3-2 (C) 4.2 07:56:22 10° NW 08:03:56 88° SW 08:12:57 10° SSE
Cosmos 2227 Rocket 3.6 08:00:53 10° NW 08:04:46 19° W 08:08:06 12° SW
Cosmos 1725 Rocket 4.2 07:59:14 10° NNW 08:05:17 52° W 08:11:20 10° SSW
DELTA 2 R/B (1) 3.7 08:01:04 11° WSW 08:06:18 60° S 08:11:43 10° E
H-2A R/B 4.5 08:07:27 10° NE 08:10:41 20° E 08:13:52 10° SE
ARGOS 3.6 08:07:03 10° NNE 08:12:25 64° ESE 08:17:46 10° S
METEOR-M 4.2 08:09:36 10° NNE 08:14:59 86° ESE 08:20:19 10° SSW
Tiangong -0.1 08:15:03 10° SSW 08:17:18 18° SSE 08:19:34 10° ESE
SL-4 R/B 2.6 08:15:07 10° W 08:17:32 21° SW 08:19:55 10° S
Cosmos 1844 4.3 08:12:48 10° NNW 08:18:30 64° ENE 08:24:04 10° SE
DNEPR-1 R/B 3.5 08:15:19 10° SSW 08:19:26 88° NW 08:24:00 10° NNE
Cosmos 2322 Rocket 2.9 08:17:11 10° S 08:22:37 52° ESE 08:28:06 10° NNE
Cosmos 1892 Rocket 4.3 08:24:32 10° S 08:28:42 52° E 08:32:54 10° NNE
H-2A R/B 2.6 08:24:24 10° N 08:29:11 41° WNW 08:33:50 10° SW
Envisat 4.3 08:27:17 10° N 08:31:25 26° WNW 08:35:33 10° WSW
Meteor 2-17 Rocket 4.5 08:27:28 10° SSW 08:33:31 73° W 08:39:34 10° N
